GFSNGP_850_dewp_099.txt.gz
Dewpoint
2 3 3 4 5 6 5 4 3 1 1 -1 -4 -4 -4 -2 -2 -2 -2 -2 -3 -3 -3 -3 -4 -4 -4 -2 1 3 3 3 3 3 4 3 2 3 5 5 5 4 1 0
-2 -1 2 4 3 4 5 5 5 4 4 -0 -2 -4 -3 -2 -1 -1 -2 -3 -3 -3 -3 -3 -3 -2 -2 -2 -0 2 3 4 4 4 3 3 5 6 5 3 0 0 1 1
-3 -2 1 1 2 2 3 4 5 6 3 1 2 2 1 -1 -1 -1 -1 -2 -2 -3 -3 -3 -2 -2 -2 -2 -0 1 3 4 4 5 5 5 4 2 1 0 1 1 1 1
-2 2 2 -1 -1 0 1 3 3 3 2 1 1 -0 -1 0 0 -0 -1 -2 -3 -3 -3 -2 -2 -2 -2 -0 1 1 2 4 4 4 3 2 1 1 1 1 1 1 1 1
0 1 -0 -1 -1 1 3 2 0 1 1 1 1 1 -0 -0 -1 -1 -2 -2 -2 -1 -2 -2 -3 -3 -2 -1 1 2 2 3 3 3 2 1 1 1 1 1 1 1 1 0
1 1 3 1 1 -1 -1 1 -1 -0 0 -0 -1 1 -0 -1 -0 -0 -1 -2 -2 -2 -3 -2 -1 -1 -2 -1 1 2 2 2 3 2 2 1 1 1 1 1 1 1 1 0
-2 -1 -0 2 1 -1 -0 -1 -0 -0 2 0 0 -1 0 0 -1 -1 -1 -1 -1 -1 -2 -2 -2 -1 -2 -1 1 1 3 2 3 2 2 1 1 1 1 1 1 1 0 -0
0 1 1 2 -0 0 1 0 1 1 1 3 2 1 -0 -0 0 0 0 -0 -1 -1 -1 -1 0 -0 -1 -1 1 2 3 2 2 2 2 1 1 1 1 1 1 0 -0 -0
-1 -1 0 1 -0 0 1 -0 -0 1 1 1 2 1 1 1 1 1 1 0 -1 -1 0 0 -1 -1 -0 1 2 3 3 2 2 2 2 1 1 1 1 0 -0 -0 -1 -1
-0 -2 -3 -2 1 -2 -3 1 1 1 1 1 -0 1 2 2 1 1 1 1 0 -0 1 2 3 2 2 2 3 3 3 2 2 2 2 1 1 1 0 -0 -0 -0 -1 -1
-4 -5 -1 -1 -5 -7 -7 -4 -2 1 1 1 2 2 2 2 2 1 1 1 1 1 1 2 3 3 3 2 3 3 2 2 2 2 1 1 1 0 -0 -0 -0 0 0 0
-5 -6 -5 -5 -6 -5 -4 -4 -2 -1 -1 2 2 3 3 3 2 1 0 1 2 1 0 1 1 2 2 2 2 2 2 2 1 1 1 0 -0 -0 -0 0 1 1 0 -0
-4 -3 -2 -2 -3 -3 -4 -4 -5 -4 -2 1 2 3 3 2 2 1 1 1 1 1 2 2 1 0 0 0 0 0 0 0 0 0 0 0 0 0 -0 0 1 1 1 0
-2 -2 -2 -4 -3 -4 -3 -4 -2 -2 -1 1 2 2 2 2 3 1 1 1 0 0 1 1 1 1 1 2 2 2 2 2 2 2 2 2 2 1 1 1 1 0 0 0
-1 -3 -4 -3 -4 -5 -4 -4 -2 -0 1 2 2 2 2 3 2 2 1 0 -0 -1 -2 -2 -2 -2 -2 -2 -1 -1 1 1 1 1 1 1 1 1 1 0 0 0 0 -0
-1 -3 -3 -2 -3 -3 -3 -2 -0 0 1 2 1 1 2 2 1 0 -1 -1 -1 -1 -2 -2 -2 -2 -1 -1 -2 -2 -1 -0 1 0 0 0 0 0 0 -0 -0 -0 -0 -0
-1 -3 -3 -2 -2 -1 -0 -0 0 1 1 1 1 0 0 0 -0 -1 -1 -2 -2 -1 -1 -1 -1 -1 -1 -2 -5 -2 -1 -1 -0 -0 -0 -0 -0 -0 -0 -1 -1 -1 -1 -1
-2 -3 -3 -2 -2 -1 -0 -0 -0 -0 -0 0 0 0 0 1 0 0 0 -0 -0 -0 -1 -1 -1 -3 -5 -7 -7 -5 -3 -1 -1 -1 -1 -1 -1 -1 -1 -1 -1 -1 -1 -2
-2 -2 -3 -2 -1 -1 -1 -1 -1 -1 -1 -1 -1 -0 -1 -1 -0 -0 -1 -2 -2 -3 -4 -8 -12 -14 -15 -16 -14 -9 -6 -4 -3 -2 -2 -2 -2 -2 -2 -2 -2 -2 -3 -2
-2 -1 -2 -2 -1 -1 -1 -1 -1 -1 -2 -2 -2 -2 -1 -1 -1 -1 -2 -4 -9 -11 -14 -17 -19 -18 -19 -19 -18 -18 -17 -12 -5 -3 -3 -3 -3 -3 -3 -3 -3 -3 -3 -4
-3 -2 -2 -2 -2 -2 -2 -2 -2 -2 -2 -2 -4 -3 -4 -9 -9 -12 -17 -15 -13 -15 -19 -19 -19 -19 -19 -19 -19 -19 -18 -17 -17 -16 -14 -12 -9 -8 -6 -5 -5 -5 -5 -6
-3 -3 -2 -2 -3 -4 -8 -13 -17 -19 -20 -19 -19 -19 -20 -19 -19 -19 -19 -18 -15 -18 -20 -20 -20 -20 -20 -20 -20 -19 -19 -19 -19 -19 -19 -18 -18 -18 -18 -18 -17 -17 -17 -16
-3 -3 -3 -5 -10 -11 -10 -9 -9 -10 -12 -15 -17 -20 -21 -20 -20 -20 -19 -17 -18 -20 -20 -20 -20 -20 -20 -19 -19 -18 -16 -14 -14 -14 -14 -13 -13 -13 -13 -14 -14 -15 -15 -16
-3 -3 -3 -5 -5 -3 -3 -3 -3 -2 -2 -2 -4 -7 -11 -15 -19 -21 -21 -20 -21 -21 -21 -20 -20 -19 -18 -17 -15 -15 -17 -18 -18 -17 -14 -13 -13 -14 -15 -15 -15 -15 -14 -14
-3 -3 -3 -3 -3 -2 -3 -3 -3 -3 -2 -2 -2 -2 -5 -7 -9 -13 -18 -21 -21 -21 -21 -20 -18 -16 -15 -15 -16 -18 -19 -19 -19 -16 -14 -13 -14 -15 -14 -13 -13 -14 -14 -14
-7 -8 -10 -11 -11 -11 -12 -11 -10 -8 -4 -3 -3 -3 -3 -4 -6 -7 -9 -15 -20 -21 -21 -20 -17 -15 -15 -16 -18 -19 -19 -19 -20 -16 -13 -14 -14 -13 -14 -14 -15 -15 -14 -14
-11 -13 -13 -12 -12 -12 -11 -11 -10 -11 -11 -10 -9 -4 -3 -3 -3 -3 -4 -5 -6 -6 -15 -20 -18 -15 -15 -17 -17 -18 -18 -19 -20 -15 -14 -14 -14 -14 -14 -15 -14 -14 -14 -13

GFSNGP_850_dewp_105.txt.gz
Dewpoint
-1 -1 -0 -0 1 2 2 3 6 3 1 -1 -2 -4 -3 -2 -1 -2 -2 -2 -3 -3 -3 -3 -3 -3 -3 -3 -2 1 2 3 3 3 2 2 2 3 3 1 1 0 2 4
-5 -3 -1 0 -0 0 2 1 2 3 3 1 1 0 -3 -2 -2 -1 -1 -1 -1 -2 -3 -3 -3 -3 -3 -3 -3 -3 -2 2 3 3 2 2 2 1 1 1 1 5 5 4
-2 -3 -0 -1 0 1 2 2 3 4 3 2 2 2 2 2 -0 -1 -0 -1 -1 -2 -2 -2 -3 -3 -2 -2 -2 -2 -2 1 3 3 3 3 3 2 2 1 3 5 4 1
-1 -3 -2 2 -1 1 2 3 2 2 2 1 1 2 2 2 2 1 0 -0 -1 -2 -2 -3 -3 -3 -2 -2 -2 -2 -1 -1 1 3 4 4 4 4 3 3 5 4 1 1
-1 -0 -2 0 1 1 2 4 2 2 1 2 1 -0 1 1 0 -0 -1 -1 -1 -2 -2 -2 -2 -2 -2 -3 -3 -2 -1 -1 0 2 4 4 4 3 4 5 3 1 1 1
-3 -0 1 -1 0 1 -1 3 2 2 2 2 1 3 1 0 0 0 -0 -0 -1 -1 -1 -1 -2 -2 -2 -2 -1 -2 -3 -1 1 2 3 4 4 4 4 2 1 1 1 1
-2 -1 -3 -5 -0 -1 3 0 1 1 1 2 2 2 1 0 0 -0 -0 -1 -1 -1 -1 -1 -2 -2 -3 -3 -3 -2 -1 -0 2 2 3 4 4 3 2 1 1 1 1 1
-2 -1 -2 -0 -1 0 -1 -0 -0 1 1 2 1 1 1 1 1 1 1 1 1 0 -1 -1 -0 -1 -1 -1 -0 -1 -1 0 2 3 4 3 3 2 1 1 1 1 1 0
-2 -3 -5 0 -1 -0 1 0 -0 -0 -1 0 1 1 1 2 1 1 1 1 1 0 -1 0 1 1 -0 0 0 -1 -0 2 3 3 3 3 2 2 1 1 1 1 1 -0
-1 -3 -2 -3 -0 0 -5 -4 -4 -4 -3 -1 -1 1 2 2 2 1 1 1 1 1 1 2 2 2 1 1 1 1 2 3 3 3 3 3 2 2 1 1 1 1 0 0
-3 -5 -5 -1 -1 -5 -5 -4 -4 -4 -4 -4 -2 -2 2 2 2 1 1 1 1 1 1 2 2 2 2 2 2 3 3 3 3 2 2 2 2 2 1 1 1 1 0 0
-4 -6 -7 -5 -5 -4 -4 -4 -4 -4 -4 -4 -4 -2 0 2 2 1 1 1 1 1 1 1 1 2 2 2 2 3 3 2 2 2 2 2 2 1 2 2 1 0 0 0
-7 -7 -5 -3 -3 -4 -4 -4 -4 -3 -2 -2 -4 -2 -0 2 2 1 1 1 2 1 1 1 1 0 1 2 2 2 2 2 2 2 2 2 1 2 2 1 0 0 1 1
-5 -4 -3 -3 -4 -4 -4 -4 -3 -2 -2 -1 0 0 1 2 2 2 2 2 2 1 1 1 0 0 1 2 2 1 1 1 2 2 2 2 1 1 0 0 1 1 1 1
-4 -2 -2 -3 -4 -3 -4 -3 -1 -2 -2 -2 -1 0 2 2 2 2 2 1 1 1 1 -1 -1 -2 -2 -2 -2 -2 -2 -1 0 1 1 1 1 1 1 1 1 1 1 0
-3 -2 -2 -3 -3 -3 -2 -1 -0 -0 0 0 0 0 1 2 2 2 2 1 1 0 -1 -1 -1 -1 -1 -1 -1 -1 -2 -4 -3 -1 -0 0 0 1 0 0 0 0 0 -0
-2 -2 -3 -3 -3 -2 -2 -1 -1 -0 -0 -0 -0 0 0 0 1 1 1 1 0 -0 -1 -1 -1 -1 -1 -1 -1 -2 -3 -6 -3 -2 -1 -1 -1 -0 -1 -1 -1 -1 -1 -1
-3 -3 -3 -3 -3 -2 -2 -1 -1 -1 -1 -1 -1 -0 -0 -0 -0 -0 -0 0 0 -0 -0 -0 -1 -2 -4 -8 -11 -13 -11 -8 -5 -3 -3 -1 -1 -1 -1 -1 -1 -1 -2 -2
-3 -2 -2 -3 -3 -3 -2 -1 -1 -1 -1 -1 -1 -1 -1 -1 -1 -1 -1 -1 -1 -1 -1 -1 -3 -9 -14 -17 -18 -19 -19 -16 -9 -4 -4 -4 -3 -2 -2 -2 -2 -2 -2 -3
-3 -1 -1 -2 -2 -2 -3 -2 -3 -3 -2 -2 -2 -2 -2 -2 -2 -2 -2 -2 -2 -2 -3 -6 -10 -17 -18 -18 -19 -19 -19 -18 -16 -7 -4 -4 -4 -4 -4 -4 -3 -4 -4 -4
-2 -2 -3 -3 -3 -3 -2 -2 -4 -7 -12 -15 -12 -10 -13 -15 -15 -15 -16 -16 -14 -13 -13 -13 -17 -18 -18 -19 -19 -19 -19 -19 -18 -17 -14 -11 -9 -9 -9 -10 -10 -11 -13 -15
-3 -3 -3 -3 -3 -3 -4 -8 -12 -13 -13 -13 -15 -16 -18 -19 -20 -20 -19 -16 -18 -18 -17 -17 -19 -19 -19 -19 -19 -19 -19 -19 -18 -16 -15 -15 -14 -14 -14 -14 -14 -14 -14 -15
-3 -3 -3 -3 -4 -5 -9 -10 -7 -5 -3 -3 -3 -3 -3 -4 -8 -12 -16 -19 -20 -18 -16 -18 -20 -20 -19 -19 -19 -19 -17 -15 -14 -16 -15 -14 -13 -13 -14 -15 -15 -15 -15 -14
-3 -3 -3 -3 -4 -6 -6 -3 -3 -3 -3 -3 -3 -3 -3 -3 -3 -3 -5 -12 -16 -18 -19 -19 -19 -19 -19 -18 -17 -17 -15 -16 -17 -18 -17 -15 -14 -14 -15 -14 -14 -14 -14 -15
-3 -3 -4 -4 -5 -6 -8 -10 -11 -11 -11 -10 -10 -9 -6 -3 -3 -3 -4 -4 -4 -11 -17 -18 -19 -19 -19 -17 -16 -15 -15 -17 -17 -18 -19 -19 -15 -14 -14 -14 -14 -15 -15 -15
-7 -7 -7 -10 -12 -12 -12 -14 -16 -16 -16 -15 -13 -10 -10 -10 -9 -7 -4 -4 -4 -4 -4 -7 -13 -17 -18 -17 -15 -15 -14 -9 -16 -18 -19 -20 -18 -14 -14 -14 -14 -15 -15 -15
-5 -6 -9 -12 -14 -18 -18 -18 -19 -19 -19 -19 -19 -16 -14 -11 -8 -8 -8 -8 -6 -5 -5 -5 -6 -6 -8 -15 -16 -15 -14 -16 -17 -17 -17 -19 -20 -14 -14 -14 -15 -15 -15 -14

GFSNGP_850_dewp_111.txt.gz
Dewpoint
-4 -4 -4 -3 -2 -4 1 1 3 1 1 1 -0 -1 -1 -2 -1 -1 -0 -0 -1 -1 -0 1 3 4 4 4 3 3 4 4 5 5 4 2 1 1 2 4 5 9 9 10
-0 -3 -2 -3 -5 -5 -3 -1 -1 0 1 -2 -0 0 1 -0 -1 0 0 0 0 -1 -1 -0 0 -1 1 3 4 4 4 4 3 2 2 2 2 3 3 5 8 9 9 9
0 -2 1 3 -0 0 1 0 2 2 1 1 1 0 1 1 1 1 1 1 1 -1 -1 -2 -2 -2 -1 -2 -2 -0 1 2 3 3 3 3 3 4 5 6 8 9 8 6
1 1 3 1 -1 1 0 1 2 2 2 3 2 1 1 1 1 0 0 0 0 1 -1 -2 -2 -2 -2 -2 -1 -2 -2 -2 -1 1 2 3 3 3 4 5 6 5 3 1
1 -3 -3 -1 -1 0 1 2 3 3 2 1 2 1 2 2 2 1 1 1 1 1 -0 -1 -1 -2 -2 -2 -3 -2 -1 -1 -1 -0 1 2 3 3 3 2 2 1 1 3
0 -0 -4 -1 -0 -0 -0 2 1 2 1 1 1 3 2 2 2 2 2 2 1 0 1 1 -0 -1 -2 -2 -2 -2 -2 -2 -2 -0 0 1 3 3 3 2 2 1 2 3
-3 -1 -7 -3 -2 -0 2 3 1 1 1 1 2 2 2 2 2 2 2 3 2 2 1 1 -0 -1 -1 -1 -2 -2 -2 -2 -2 -1 1 2 2 3 3 3 3 3 3 3
-4 -1 -2 -3 -1 0 -0 -0 -0 0 0 0 0 0 1 1 2 2 1 2 2 2 1 0 -0 -1 -0 0 -1 -1 -1 -2 -2 -1 -0 2 2 3 4 4 4 3 4 3
-4 -4 -4 -3 -1 -1 -1 -1 -0 -2 -2 -3 -3 -2 -2 -2 1 2 1 1 1 1 1 1 1 1 2 2 1 -0 0 1 0 -1 0 2 3 4 4 4 4 4 4 2
-2 -5 -5 -2 -0 -1 -0 -2 -3 -3 -3 -3 -4 -4 -3 -2 -1 2 2 1 1 1 1 1 1 2 2 2 1 1 1 1 1 1 1 3 3 4 4 4 4 4 1 1
-4 -5 -3 -3 -3 -1 -2 -3 -3 -3 -3 -3 -3 -3 -3 -3 -2 0 2 1 1 1 1 1 1 2 2 2 2 2 2 2 2 2 3 3 4 4 4 4 3 1 1 1
-8 -6 -6 -4 -3 -3 -3 -3 -3 -3 -4 -4 -3 -2 -3 -3 -2 -0 2 1 0 1 2 2 1 0 2 2 2 3 3 3 3 3 3 4 3 3 3 2 2 1 1 1
-7 -6 -6 -5 -4 -3 -3 -4 -4 -4 -2 -2 -3 -1 -1 -2 -1 0 2 1 1 1 2 2 1 2 1 1 2 2 3 3 3 3 3 3 3 3 2 2 2 2 2 2
-7 -5 -3 -3 -3 -4 -5 -4 -4 -2 -1 -1 -2 -1 -1 0 0 1 2 2 2 1 2 1 0 -0 -1 0 1 1 2 3 2 2 2 2 2 2 2 2 2 2 2 2
-5 -4 -4 -3 -4 -4 -4 -3 -1 -1 -0 -0 -0 -2 -2 -1 -1 1 2 2 2 1 1 1 1 0 -0 -1 -1 -1 -1 -1 0 1 2 2 2 2 1 2 1 1 1 1
-4 -3 -3 -2 -3 -3 -3 -2 -1 -1 -1 -0 -0 -0 -0 0 1 1 1 1 1 1 1 1 0 0 0 0 0 -0 -1 -1 -1 -2 -2 -1 1 1 1 1 1 1 0 0
-3 -3 -2 -2 -3 -3 -2 -2 -1 -1 -1 -1 -1 -1 -0 -0 -0 0 0 0 0 0 0 0 0 0 0 -0 -1 -2 -2 -2 -2 -2 -3 -3 -2 -1 -0 0 0 -0 -0 -0
-4 -3 -3 -3 -3 -3 -2 -2 -2 -2 -1 -1 -1 -2 -1 -1 -0 -0 -0 -0 -0 -0 -1 -1 -1 -1 -1 -1 -1 -1 -4 -8 -13 -10 -7 -5 -3 -2 -1 -1 -1 -1 -1 -1
-3 -3 -3 -3 -3 -3 -2 -2 -2 -1 -2 -3 -3 -3 -2 -2 -1 -1 -1 -1 -2 -2 -2 -2 -2 -2 -3 -3 -3 -3 -5 -10 -16 -16 -11 -5 -3 -3 -2 -2 -2 -2 -2 -2
-3 -2 -2 -2 -2 -2 -2 -2 -2 -2 -4 -5 -7 -9 -8 -8 -9 -11 -11 -12 -14 -14 -13 -10 -9 -10 -11 -13 -13 -11 -7 -8 -13 -15 -12 -6 -4 -3 -3 -3 -3 -3 -3 -3
-3 -2 -2 -2 -2 -2 -3 -3 -2 -3 -7 -12 -16 -17 -17 -17 -17 -17 -18 -18 -18 -18 -16 -15 -14 -11 -11 -15 -17 -17 -18 -17 -17 -15 -11 -6 -5 -5 -5 -4 -4 -4 -4 -4
-2 -2 -2 -2 -3 -3 -3 -3 -4 -7 -11 -9 -6 -4 -4 -3 -3 -3 -3 -4 -5 -9 -15 -19 -18 -15 -10 -7 -7 -9 -12 -16 -18 -18 -15 -11 -8 -6 -6 -6 -5 -5 -6 -6
-3 -2 -2 -2 -3 -3 -3 -4 -7 -9 -7 -4 -4 -3 -3 -4 -4 -4 -4 -4 -4 -4 -4 -7 -14 -17 -15 -16 -15 -14 -14 -16 -17 -18 -16 -14 -14 -13 -13 -13 -13 -14 -14 -14
-4 -4 -3 -3 -3 -4 -4 -5 -7 -5 -5 -7 -9 -10 -10 -11 -10 -10 -10 -8 -6 -4 -4 -4 -4 -5 -10 -15 -18 -18 -18 -17 -17 -16 -14 -15 -14 -14 -14 -14 -14 -15 -15 -15
-4 -4 -4 -4 -4 -4 -5 -7 -8 -10 -12 -13 -15 -15 -15 -15 -16 -14 -12 -11 -10 -9 -9 -6 -4 -5 -5 -7 -7 -15 -17 -16 -16 -15 -13 -15 -17 -17 -16 -14 -14 -14 -14 -14
-4 -4 -4 -6 -6 -8 -10 -11 -13 -17 -18 -19 -19 -19 -19 -18 -18 -18 -18 -18 -17 -15 -12 -9 -8 -6 -5 -6 -6 -6 -10 -16 -15 -15 -15 -17 -17 -18 -18 -17 -10 -13 -14 -14
-6 -6 -7 -7 -9 -11 -13 -16 -18 -18 -17 -16 -16 -16 -15 -15 -15 -16 -16 -16 -16 -16 -15 -15 -13 -9 -6 -6 -6 -6 -7 -7 -11 -14 -14 -15 -15 -16 -9 -10 -17 -13 -14 -14

GFSNGP_850_dewp_114.txt.gz
Dewpoint
-2 -4 -3 -3 -3 -3 -1 -0 0 1 0 1 1 1 0 -0 -0 1 1 0 -1 -1 1 2 4 4 5 5 5 6 6 5 5 5 6 6 6 6 6 7 6 6 7 8
-2 -3 -1 -3 -5 -5 -3 -1 -0 1 1 1 0 -0 0 1 1 1 1 0 -0 -1 -1 -0 1 2 4 4 5 5 5 5 4 5 6 6 5 3 3 3 4 6 8 9
-0 -1 1 -0 -0 -0 0 -1 1 2 2 2 2 1 1 1 1 1 1 1 1 1 0 -1 -1 -1 -0 -0 3 4 4 5 5 5 4 3 3 3 3 3 4 7 8 8
0 -0 1 1 -1 0 0 0 1 2 2 1 1 2 2 2 1 1 1 1 1 1 -0 -0 -1 -1 -2 -2 -1 -0 0 1 2 3 3 3 3 3 4 4 5 7 8 8
1 0 -3 -1 -2 1 1 1 1 2 1 1 1 2 2 2 2 2 2 1 1 0 1 1 -0 -1 -1 -2 -2 -2 -2 -1 -1 -1 -0 1 2 2 3 3 5 7 8 8
0 1 -1 1 0 -1 -1 3 1 2 1 1 1 4 2 2 2 2 2 2 2 2 1 -0 -0 -1 -1 -2 -2 -2 -2 -2 -2 -2 -1 -0 1 2 3 3 3 4 3 2
-0 -1 -3 -1 -1 -0 3 1 1 1 1 1 1 1 1 1 2 2 1 2 3 3 2 1 1 -0 -1 -1 -1 -1 -2 -2 -2 -1 -1 0 1 1 3 3 3 2 1 2
-2 -1 -1 -2 -1 1 -0 -0 0 1 -0 -0 0 -1 -1 -2 -0 2 2 1 1 1 1 1 1 0 0 -0 -1 -1 -1 -1 -1 -1 -1 -0 1 2 3 3 3 2 2 2
-3 -2 -4 -2 -1 -1 -1 -1 -0 -0 -1 -2 -3 -4 -3 -2 -2 -1 2 2 1 1 1 1 1 1 1 2 2 1 -0 -0 1 1 1 1 2 3 3 3 3 3 3 3
-3 -5 -3 -4 -2 -1 -1 -1 -2 -3 -3 -3 -3 -3 -3 -3 -3 -2 -1 2 1 1 1 1 1 1 2 2 2 2 1 1 1 2 2 1 2 3 4 4 4 4 4 3
-4 -5 -4 -4 -3 -2 -1 -2 -3 -3 -3 -3 -3 -3 -3 -3 -3 -3 -2 1 1 0 1 1 1 1 1 2 2 2 2 2 2 2 3 2 2 3 4 4 4 4 4 3
-3 -6 -4 -4 -4 -3 -2 -3 -3 -3 -4 -4 -3 -3 -3 -2 -3 -3 -2 1 1 0 0 1 1 1 1 1 2 2 3 3 3 2 2 2 2 3 4 4 4 4 3 2
-8 -5 -6 -4 -3 -4 -4 -4 -5 -5 -4 -3 -3 -3 -3 -2 -2 -0 -0 2 1 1 1 1 -0 -0 0 1 1 2 2 2 3 3 3 3 2 3 3 3 3 2 2 1
-7 -7 -5 -5 -4 -4 -5 -6 -5 -4 -4 -2 -2 -3 -2 -1 -1 -0 -0 1 2 2 1 0 1 1 -1 -1 -1 -0 1 2 2 2 2 2 2 1 2 2 2 2 2 2
-6 -7 -5 -5 -4 -4 -6 -5 -3 -2 -1 -0 -1 -2 -2 -2 -1 -1 0 1 1 2 2 1 1 1 1 1 1 0 -1 -1 -1 -1 1 1 2 2 2 1 2 1 1 1
-6 -5 -4 -5 -5 -4 -5 -3 -2 -1 -1 -0 -1 -2 -1 -0 -0 0 0 1 1 1 1 1 1 1 1 0 0 0 0 0 0 -1 -1 -2 -1 0 1 1 1 1 0 0
-4 -3 -3 -3 -3 -4 -4 -2 -2 -1 -2 -1 -1 -2 -2 -2 -1 -0 -0 0 0 0 0 0 -0 -0 -0 -0 -0 -0 -1 -1 -2 -3 -2 -2 -2 -2 -2 -1 -0 0 -0 -0
-6 -6 -5 -5 -4 -4 -3 -2 -2 -2 -2 -1 -2 -2 -2 -2 -2 -1 -1 -1 -1 -1 -1 -1 -1 -1 -2 -2 -2 -2 -2 -2 -3 -5 -6 -8 -8 -6 -4 -2 -2 -1 -1 -1
-4 -4 -4 -4 -4 -3 -3 -2 -2 -2 -2 -2 -3 -4 -4 -3 -3 -3 -4 -4 -6 -7 -8 -8 -6 -6 -6 -6 -7 -8 -6 -4 -4 -4 -6 -11 -11 -7 -4 -3 -2 -2 -2 -2
-3 -4 -4 -4 -3 -3 -2 -2 -3 -2 -2 -4 -5 -8 -12 -14 -14 -15 -16 -17 -17 -17 -16 -16 -15 -13 -11 -10 -12 -14 -15 -16 -14 -8 -5 -6 -6 -5 -5 -4 -3 -3 -2 -2
-4 -4 -4 -3 -3 -2 -2 -3 -2 -2 -3 -6 -11 -14 -13 -10 -7 -5 -4 -4 -4 -5 -7 -10 -16 -19 -17 -13 -10 -8 -11 -15 -17 -17 -16 -11 -9 -7 -5 -4 -4 -4 -4 -4
-4 -4 -4 -3 -3 -3 -3 -3 -3 -3 -5 -9 -10 -6 -4 -4 -3 -4 -4 -4 -4 -3 -4 -4 -4 -8 -14 -15 -15 -11 -9 -10 -10 -11 -16 -16 -13 -7 -6 -5 -5 -5 -5 -5
-4 -4 -4 -3 -3 -3 -3 -3 -4 -5 -8 -8 -6 -4 -5 -7 -8 -9 -11 -10 -9 -8 -7 -5 -4 -5 -5 -7 -12 -15 -16 -17 -16 -16 -17 -17 -14 -14 -13 -12 -11 -11 -11 -11
-4 -4 -4 -3 -2 -3 -3 -4 -5 -7 -7 -7 -9 -10 -11 -12 -13 -14 -13 -14 -13 -12 -11 -10 -9 -6 -4 -5 -5 -6 -8 -13 -17 -17 -16 -15 -14 -13 -9 -12 -14 -14 -14 -14
-6 -6 -4 -3 -4 -4 -4 -4 -5 -8 -10 -12 -14 -17 -18 -19 -20 -19 -18 -18 -18 -18 -18 -17 -15 -11 -8 -7 -6 -6 -6 -6 -10 -16 -15 -15 -12 -8 -10 -14 -15 -14 -14 -14
-6 -5 -4 -4 -4 -5 -7 -9 -10 -11 -16 -18 -19 -19 -19 -17 -16 -15 -15 -15 -15 -16 -16 -17 -17 -16 -15 -13 -9 -6 -6 -6 -7 -8 -14 -14 -14 -13 -9 -8 -12 -13 -7 -11
-5 -5 -6 -7 -8 -8 -10 -11 -13 -17 -18 -18 -17 -16 -15 -15 -14 -14 -14 -14 -15 -16 -16 -16 -16 -16 -16 -15 -14 -12 -8 -7 -7 -7 -8 -9 -13 -14 -15 -16 -16 -10 -7 -7

GFSNGP_850_dewp_117.txt.gz
Dewpoint
-3 -3 -3 -2 -3 -3 -4 -2 -1 0 4 3 2 1 1 1 1 0 1 0 -0 -0 1 2 3 5 5 5 5 7 8 6 5 5 5 5 7 6 6 7 7 8 9 9
-3 -2 -1 -3 -4 -4 -4 -2 -0 0 3 2 1 1 2 1 1 1 1 1 1 0 -1 -0 1 1 3 5 5 5 5 6 6 5 5 5 4 6 7 7 6 6 6 7
-1 -1 -2 -3 -1 -1 1 -1 0 1 2 1 1 2 2 2 2 1 1 1 1 1 0 -1 -1 -1 -0 1 2 4 5 6 6 5 4 4 5 6 4 4 3 3 4 6
-2 -3 -5 -3 -1 0 0 0 0 1 2 1 2 2 2 2 2 2 2 1 1 0 0 0 -0 -1 -1 -2 -1 -0 0 1 3 3 4 4 3 3 3 3 4 4 6 7
-2 -2 -4 -0 -0 1 1 -0 0 1 1 1 1 2 2 2 2 2 2 2 2 2 1 1 -0 -1 -1 -2 -2 -2 -2 -2 -1 -1 0 1 2 3 3 3 4 4 6 7
-2 -1 -1 -3 -0 -1 -1 0 1 1 1 1 1 3 2 1 1 2 2 1 2 3 2 1 1 0 -1 -1 -1 -2 -2 -1 -1 -1 -1 0 1 1 2 3 4 5 6 7
-2 -2 -3 -2 -1 -1 -1 -6 1 1 1 1 0 0 1 -0 -0 0 2 2 1 1 1 1 1 1 0 -0 -0 -1 -1 -1 -2 -2 -1 -1 0 1 2 2 3 4 4 5
-3 -2 -5 -1 -0 -1 -3 1 0 0 0 -0 -0 -0 -1 -2 -2 -2 1 2 1 1 1 1 1 1 1 1 1 1 0 -0 -1 -1 -1 -1 0 1 2 3 3 3 3 2
-4 -4 -7 -2 -3 -2 -1 -1 -0 1 0 -0 -1 -3 -4 -3 -3 -3 -2 1 2 1 1 1 1 1 1 1 2 2 2 1 -0 -0 -0 0 0 1 2 3 3 3 2 2
-5 -8 -4 -4 -2 -1 -1 -2 -1 -1 -2 -2 -3 -3 -3 -3 -4 -3 -3 -2 1 1 1 1 1 1 1 1 1 1 2 2 2 2 2 2 2 2 3 3 3 3 3 2
-4 -5 -5 -4 -4 -1 -1 -1 -2 -3 -3 -3 -4 -4 -4 -3 -4 -4 -3 -3 -0 0 -0 0 0 0 1 1 1 2 2 3 3 2 2 1 2 2 2 2 3 3 3 3
-6 -7 -7 -6 -5 -3 -2 -2 -3 -4 -4 -4 -4 -4 -3 -3 -3 -3 -3 -1 -0 1 -0 -0 -0 -1 -1 -0 1 1 2 2 2 2 2 2 2 2 2 2 2 3 3 3
-8 -8 -6 -6 -4 -3 -3 -3 -4 -4 -6 -4 -4 -3 -3 -3 -2 -2 -0 -0 0 1 1 1 -1 -1 -1 -1 -1 0 1 1 1 2 2 2 2 2 2 2 2 2 2 2
-8 -7 -4 -4 -4 -4 -5 -5 -5 -6 -4 -4 -3 -3 -3 -2 -2 -2 -1 -1 0 1 1 1 0 -0 1 1 0 -1 -1 -1 -1 0 1 1 1 1 1 1 1 1 1 1
-9 -8 -7 -7 -7 -6 -5 -6 -6 -4 -2 -1 -2 -2 -3 -2 -2 -1 -1 -1 0 1 1 1 1 1 1 1 1 1 1 1 1 1 -0 -1 -0 1 1 1 1 0 0 1
-8 -7 -7 -7 -7 -5 -5 -6 -5 -3 -2 -1 -1 -1 -2 -1 -1 -1 -1 -0 0 1 1 1 1 0 0 0 0 0 -0 -0 -0 -0 -0 -0 -0 -0 -1 -0 0 0 1 0
-6 -4 -5 -5 -5 -5 -6 -6 -5 -3 -2 -2 -1 -1 -2 -3 -3 -2 -1 -1 -0 -0 -0 -0 -0 -1 -1 -1 -1 -1 -1 -1 -1 -1 -1 -2 -3 -2 -2 -2 -2 -1 -1 -0
-11 -11 -8 -8 -6 -6 -5 -4 -3 -2 -2 -2 -1 -1 -2 -3 -3 -3 -2 -2 -2 -2 -2 -3 -3 -3 -3 -3 -4 -4 -5 -5 -4 -4 -3 -3 -4 -4 -4 -4 -4 -3 -2 -2
-9 -9 -8 -6 -6 -6 -5 -4 -3 -3 -2 -2 -2 -2 -3 -4 -5 -4 -5 -8 -11 -12 -13 -14 -14 -14 -13 -11 -10 -10 -12 -13 -14 -14 -12 -7 -5 -5 -5 -5 -4 -3 -3 -2
-8 -7 -6 -5 -5 -4 -4 -3 -3 -2 -2 -2 -3 -5 -6 -10 -14 -16 -16 -14 -11 -10 -10 -9 -9 -13 -17 -16 -14 -12 -10 -10 -13 -15 -17 -16 -14 -7 -6 -5 -5 -4 -4 -3
-6 -5 -4 -4 -4 -4 -4 -3 -3 -2 -2 -3 -6 -9 -13 -12 -8 -5 -4 -4 -4 -4 -3 -3 -4 -5 -6 -9 -14 -15 -14 -11 -8 -9 -11 -13 -15 -14 -8 -7 -6 -5 -4 -4
-5 -4 -4 -4 -4 -4 -4 -4 -3 -2 -3 -5 -9 -10 -7 -5 -4 -4 -5 -7 -9 -8 -7 -7 -6 -4 -4 -5 -6 -7 -10 -14 -15 -15 -15 -15 -16 -16 -12 -7 -6 -6 -5 -5
-4 -4 -4 -4 -4 -5 -4 -3 -3 -3 -4 -6 -9 -7 -5 -7 -9 -11 -11 -11 -12 -12 -13 -12 -11 -10 -8 -7 -5 -5 -5 -6 -8 -11 -16 -16 -16 -16 -14 -12 -12 -10 -8 -8
-4 -4 -4 -4 -4 -4 -4 -4 -4 -4 -6 -7 -6 -7 -10 -12 -14 -16 -18 -18 -18 -17 -17 -17 -18 -17 -16 -14 -11 -8 -7 -6 -6 -7 -8 -14 -15 -15 -14 -10 -7 -9 -13 -14
-4 -4 -4 -4 -5 -4 -4 -4 -5 -5 -6 -8 -11 -13 -16 -19 -19 -17 -16 -15 -15 -15 -15 -16 -16 -16 -17 -17 -16 -14 -12 -8 -6 -7 -7 -8 -13 -14 -14 -9 -8 -9 -9 -10
-4 -4 -5 -6 -4 -4 -4 -4 -5 -7 -9 -13 -17 -18 -19 -18 -16 -15 -15 -14 -14 -14 -15 -15 -16 -16 -16 -15 -16 -16 -15 -14 -10 -7 -7 -8 -8 -11 -13 -13 -9 -8 -8 -8
-4 -5 -4 -4 -4 -5 -6 -8 -9 -11 -14 -17 -18 -17 -16 -15 -14 -14 -14 -14 -14 -14 -15 -15 -15 -15 -15 -15 -14 -14 -14 -14 -14 -12 -8 -8 -8 -8 -9 -11 -12 -9 -9 -10

GFSNGP_850_dewp_123.txt.gz
Dewpoint
-3 -3 -2 -2 -2 -4 -4 -1 -3 -1 1 2 2 1 1 1 1 1 1 1 1 1 -0 -1 1 3 5 6 7 9 8 8 9 6 6 6 6 6 7 8 8 9 9 9
-6 -2 -1 -0 -3 -4 -4 -2 -1 -0 0 1 1 1 1 2 2 2 2 2 1 1 0 -0 -1 -0 1 3 6 7 8 9 8 7 7 7 7 8 8 8 7 8 9 9
-5 -3 -5 -10 -4 -4 -1 -1 -1 1 -2 1 1 2 2 2 2 2 2 2 2 1 1 0 -0 -1 -1 -1 1 3 5 7 7 7 7 7 7 7 6 6 5 5 7 9
-4 -5 -16 -14 -3 -2 -0 -0 -1 -0 0 1 1 2 2 2 2 2 2 1 2 2 2 1 0 -0 -1 -1 -1 -1 -1 1 2 3 4 5 6 6 6 6 5 4 4 5
-4 -3 -8 -6 -1 0 0 -2 -2 -1 -1 1 1 2 2 1 1 2 2 1 1 2 2 2 1 0 0 -1 -1 -1 -2 -2 -1 -1 -0 1 2 3 4 4 4 5 5 4
-3 -6 -12 -13 -3 -1 -4 -8 -3 -1 -1 0 1 2 -0 1 0 0 0 1 1 1 1 1 1 1 1 0 -0 -1 -1 -2 -2 -2 -2 -2 -2 -1 -0 1 2 2 3 4
-3 -3 -6 -9 -1 -3 -8 -21 -1 -1 -1 0 -0 -0 0 1 -1 -2 -2 1 1 1 1 1 1 1 1 1 0 1 0 0 -0 -1 -2 -2 -2 -2 -1 -1 0 1 2 3
-3 -3 -14 -3 -1 -4 -9 -2 -2 -1 -1 -0 -0 -1 -1 -1 -2 -3 -3 -3 0 1 1 1 1 1 1 1 1 0 0 0 0 0 0 -1 -1 -1 -1 -1 -0 1 2 2
-6 -8 -12 -2 -3 -4 -5 -3 -2 -2 -3 -3 -2 -2 -2 -1 -2 -3 -3 -3 -3 -2 1 1 1 1 0 -0 -1 -1 0 1 1 1 1 1 1 1 0 1 1 1 2 2
-7 -10 -7 -8 -5 -3 -4 -5 -5 -4 -3 -2 -2 -1 -1 -1 -3 -4 -4 -4 -4 -3 -2 1 0 0 -0 -1 -1 -1 -0 1 2 1 1 1 1 2 2 2 1 1 2 2
-5 -7 -8 -9 -9 -10 -7 -3 -2 -2 -2 -3 -2 -1 -2 -3 -4 -5 -5 -5 -4 -3 -3 -0 0 -0 -0 -1 -1 -1 -1 -1 0 1 1 1 1 2 2 2 2 1 1 1
-9 -11 -12 -13 -14 -13 -10 -7 -3 -2 -2 -2 -2 -3 -4 -6 -5 -3 -3 -3 -4 -3 -3 -1 1 -0 -0 -2 -1 -1 -1 -1 -1 -1 -1 -0 0 0 0 1 2 2 2 1
-12 -12 -12 -12 -11 -11 -10 -9 -4 -3 -3 -3 -4 -5 -7 -5 -4 -3 -3 -1 -0 -1 -1 -1 1 1 0 -1 -2 -2 -2 -1 -1 -0 0 0 1 1 0 -1 -0 1 1 1
-12 -10 -9 -9 -10 -11 -11 -9 -4 -2 -2 -3 -5 -7 -5 -4 -3 -3 -3 -2 -2 -2 0 -0 -0 0 1 1 1 1 1 1 0 0 -0 -0 -1 -1 -1 -1 -0 -0 -1 0
-12 -12 -12 -11 -10 -9 -9 -7 -2 -2 -3 -5 -7 -6 -4 -3 -3 -3 -3 -3 -2 -2 -1 -1 -1 -0 -0 -0 0 1 0 -0 -1 -1 -1 -2 -2 -2 -2 -2 -2 -1 -1 -0
-12 -11 -10 -10 -10 -8 -8 -6 -4 -3 -4 -6 -7 -5 -4 -3 -3 -3 -2 -2 -2 -2 -2 -1 -1 -0 -0 -0 0 -1 -2 -2 -2 -3 -4 -4 -5 -5 -5 -5 -4 -3 -3 -2
-10 -9 -9 -9 -9 -9 -8 -7 -7 -6 -6 -7 -7 -4 -3 -3 -3 -2 -2 -1 -2 -2 -3 -3 -2 -2 -3 -2 -3 -4 -5 -7 -8 -10 -12 -12 -13 -13 -13 -14 -10 -7 -5 -4
-9 -10 -9 -9 -9 -10 -9 -7 -7 -6 -6 -7 -5 -3 -4 -2 -2 -2 -2 -3 -3 -3 -4 -5 -6 -8 -10 -12 -14 -14 -14 -12 -11 -11 -11 -11 -11 -11 -12 -14 -16 -16 -11 -6
-9 -9 -8 -8 -8 -8 -9 -8 -7 -7 -7 -6 -3 -3 -3 -2 -2 -2 -3 -4 -5 -7 -10 -12 -13 -13 -11 -7 -5 -5 -7 -9 -11 -13 -13 -12 -11 -10 -9 -10 -10 -11 -13 -10
-10 -9 -9 -7 -7 -8 -8 -8 -7 -6 -6 -5 -3 -3 -2 -2 -2 -4 -6 -8 -13 -11 -8 -5 -5 -4 -4 -4 -4 -4 -5 -5 -6 -8 -9 -9 -11 -13 -13 -13 -13 -14 -14 -13
-8 -9 -9 -8 -7 -7 -8 -8 -7 -6 -6 -4 -3 -3 -2 -2 -5 -7 -12 -12 -6 -5 -6 -9 -10 -9 -10 -11 -11 -10 -8 -7 -6 -5 -5 -5 -6 -7 -8 -12 -16 -15 -15 -13
-8 -8 -8 -7 -7 -7 -8 -6 -6 -6 -5 -3 -3 -3 -2 -4 -8 -12 -7 -5 -6 -9 -11 -12 -15 -18 -19 -19 -18 -18 -18 -18 -18 -18 -15 -9 -7 -7 -7 -7 -11 -16 -16 -13
-7 -7 -7 -7 -6 -7 -6 -5 -5 -5 -4 -3 -4 -3 -4 -8 -11 -6 -5 -8 -11 -12 -17 -19 -18 -16 -16 -15 -15 -15 -16 -16 -16 -16 -16 -14 -11 -8 -7 -7 -8 -13 -15 -13
-8 -7 -7 -6 -6 -5 -5 -4 -4 -4 -3 -4 -4 -4 -7 -10 -7 -6 -9 -12 -16 -18 -17 -15 -15 -15 -14 -14 -14 -15 -15 -16 -16 -16 -14 -13 -12 -10 -8 -8 -8 -8 -13 -14
-7 -7 -6 -5 -5 -4 -4 -4 -3 -3 -3 -3 -4 -6 -9 -7 -7 -11 -15 -17 -18 -16 -15 -14 -14 -14 -14 -15 -16 -16 -16 -15 -15 -14 -12 -12 -11 -10 -10 -9 -8 -8 -9 -13
-6 -6 -6 -5 -4 -4 -4 -4 -4 -4 -3 -4 -6 -7 -6 -8 -13 -17 -18 -17 -15 -15 -14 -14 -13 -15 -17 -17 -17 -16 -16 -16 -15 -15 -14 -14 -14 -13 -12 -11 -10 -9 -9 -9
-6 -5 -4 -3 -3 -3 -3 -4 -4 -4 -4 -5 -6 -7 -11 -15 -17 -17 -16 -15 -14 -14 -13 -15 -17 -17 -17 -17 -17 -17 -17 -17 -16 -16 -16 -15 -15 -14 -14 -13 -11 -10 -9 -9

GFSNGP_850_dewp_126.txt.gz
Dewpoint
-4 -4 -2 -2 -2 -3 -4 -2 -4 -3 -0 -0 1 1 1 1 1 1 1 2 1 1 -0 -0 -0 2 5 7 8 9 10 8 8 9 9 8 8 7 7 9 9 8 9 9
-6 -3 -2 -1 -2 -3 -4 -3 -1 -1 0 -2 1 1 1 1 2 2 1 2 2 1 1 -0 -1 -1 0 2 6 7 8 8 8 7 8 8 8 7 8 8 7 7 7 8
-7 -4 -6 -11 -7 -3 -3 -3 -2 0 -2 -0 1 1 1 2 2 2 2 1 2 2 1 1 0 -0 -1 -1 -0 2 5 7 7 7 7 7 7 7 6 6 6 5 5 6
-4 -8 -20 -15 -5 -4 -3 -1 -2 -1 -2 0 1 1 1 1 1 1 2 1 1 1 2 1 1 0 -0 -1 -1 -1 -2 -1 -0 1 3 4 5 6 6 6 6 6 5 5
-4 -5 -12 -6 -2 -0 -1 -7 -2 -1 -2 -0 1 2 1 1 1 1 1 1 1 1 1 1 1 1 1 0 -0 -1 -1 -2 -2 -2 -2 -1 -0 1 2 3 4 5 5 5
-3 -8 -17 -19 -4 -1 -4 -15 -7 -2 -2 -0 1 1 -1 -1 1 0 -0 -1 1 1 1 1 1 1 1 0 0 0 -0 -0 -0 -1 -1 -2 -2 -2 -1 -0 0 1 2 3
-4 -4 -9 -12 -2 -3 -11 -22 -4 -2 -2 -0 -0 -1 -1 0 0 -1 -2 -3 -1 1 1 1 1 1 1 0 0 0 0 1 0 0 0 -0 -1 -1 -1 -1 -1 -0 1 1
-4 -3 -17 -8 -1 -6 -14 -10 -4 -2 -2 -1 -2 -1 -1 -1 -1 -2 -3 -3 -4 -3 1 1 1 1 0 -0 -1 -1 -1 0 1 2 1 1 1 1 0 0 0 0 1 1
-7 -10 -15 -4 -6 -7 -7 -7 -4 -4 -4 -3 -2 -2 -2 -3 -2 -2 -3 -4 -4 -3 -3 1 1 0 -0 -0 -1 -1 -2 -1 0 1 1 1 1 1 1 1 1 1 1 1
-7 -11 -8 -10 -9 -8 -6 -5 -6 -5 -5 -4 -4 -3 -2 -2 -1 -2 -3 -4 -4 -4 -4 -3 0 0 -0 -1 -1 -1 -1 -2 -1 -1 -2 -1 0 1 1 1 1 1 1 1
-6 -8 -9 -11 -10 -12 -11 -10 -6 -4 -4 -4 -3 -3 -3 -1 -2 -3 -5 -5 -5 -4 -4 -3 -1 0 -0 -1 -1 -2 -2 -2 -2 -2 -1 -1 -1 -1 -0 -0 0 0 1 1
-10 -12 -13 -14 -14 -13 -13 -13 -13 -9 -4 -3 -3 -3 -3 -3 -5 -7 -5 -4 -4 -5 -4 -3 -2 0 0 0 -2 -2 -2 -2 -2 -2 -2 -2 -2 -3 -1 0 0 -0 -0 -0
-12 -12 -13 -13 -14 -12 -12 -12 -12 -10 -8 -3 -3 -4 -4 -5 -7 -5 -4 -3 -3 -3 -2 -2 -2 -0 0 1 1 -0 -0 -0 -0 -0 -0 -0 -1 -1 -1 -2 -2 -2 -1 -0
-12 -11 -11 -12 -12 -12 -11 -11 -11 -10 -7 -3 -3 -3 -5 -7 -6 -4 -3 -3 -2 -2 -2 -1 -0 -1 -1 0 -1 -0 -0 -0 -0 -1 -1 -1 -2 -2 -3 -3 -3 -4 -4 -3
-9 -11 -12 -12 -12 -11 -11 -10 -9 -9 -7 -3 -2 -3 -6 -8 -6 -4 -3 -3 -3 -2 -2 -1 -1 -1 -1 -1 -1 -1 -1 -1 -1 -3 -3 -4 -5 -6 -6 -8 -10 -10 -11 -9
-9 -9 -10 -11 -11 -11 -11 -10 -9 -9 -7 -4 -3 -4 -7 -7 -5 -4 -4 -3 -3 -2 -2 -2 -2 -1 -1 -1 -1 -1 -2 -2 -4 -5 -8 -10 -12 -12 -13 -13 -13 -13 -13 -14
-9 -10 -10 -11 -11 -12 -11 -10 -10 -9 -9 -5 -4 -4 -7 -6 -4 -3 -3 -3 -2 -2 -2 -2 -3 -3 -3 -3 -3 -5 -7 -10 -11 -11 -11 -12 -12 -12 -11 -11 -10 -10 -11 -11
-8 -8 -9 -9 -9 -10 -10 -10 -10 -9 -8 -8 -4 -5 -6 -4 -4 -3 -3 -2 -2 -3 -3 -3 -4 -5 -7 -9 -11 -13 -11 -9 -9 -9 -10 -11 -11 -12 -11 -12 -11 -10 -11 -11
-8 -9 -9 -9 -8 -8 -8 -8 -8 -8 -8 -6 -4 -5 -7 -4 -3 -3 -2 -2 -3 -3 -5 -6 -8 -11 -11 -9 -5 -4 -4 -5 -5 -6 -6 -7 -8 -8 -9 -9 -10 -12 -13 -13
-9 -9 -9 -9 -8 -8 -8 -7 -7 -8 -7 -5 -5 -6 -5 -3 -3 -3 -2 -2 -4 -7 -10 -10 -8 -5 -5 -6 -6 -8 -10 -10 -9 -9 -8 -7 -6 -5 -5 -6 -7 -8 -9 -14
-9 -8 -8 -8 -8 -9 -8 -7 -7 -7 -7 -5 -5 -6 -5 -3 -3 -2 -2 -4 -8 -11 -8 -5 -6 -9 -10 -12 -15 -18 -18 -17 -17 -17 -16 -16 -16 -16 -13 -8 -7 -7 -7 -9
-8 -8 -8 -8 -8 -8 -8 -7 -7 -7 -6 -5 -5 -5 -3 -3 -3 -2 -4 -10 -9 -5 -5 -8 -11 -14 -18 -18 -16 -16 -15 -15 -15 -15 -16 -16 -16 -16 -13 -12 -10 -8 -8 -8
-8 -8 -8 -8 -8 -7 -7 -6 -7 -7 -6 -5 -5 -4 -3 -4 -3 -4 -9 -9 -5 -6 -10 -12 -17 -17 -16 -15 -15 -14 -14 -14 -15 -16 -16 -16 -16 -13 -12 -11 -10 -10 -8 -8
-7 -7 -7 -8 -8 -7 -6 -6 -6 -5 -5 -5 -3 -3 -3 -4 -4 -10 -9 -5 -7 -11 -14 -17 -16 -15 -15 -15 -14 -14 -16 -17 -17 -17 -16 -16 -15 -14 -15 -13 -11 -11 -10 -9
-7 -7 -7 -7 -7 -7 -6 -6 -5 -4 -4 -3 -2 -3 -3 -4 -9 -9 -6 -7 -11 -15 -17 -15 -15 -15 -14 -14 -16 -18 -18 -17 -17 -17 -16 -16 -16 -15 -15 -14 -14 -13 -11 -10
-8 -7 -7 -7 -6 -6 -5 -4 -4 -4 -3 -2 -3 -3 -4 -8 -9 -7 -9 -13 -16 -16 -15 -14 -14 -13 -16 -18 -18 -18 -18 -17 -17 -17 -17 -17 -17 -16 -16 -15 -15 -14 -13 -12
-7 -7 -6 -6 -5 -5 -4 -4 -4 -3 -3 -3 -3 -4 -7 -7 -7 -11 -15 -16 -16 -15 -14 -13 -15 -18 -18 -18 -18 -18 -17 -17 -17 -17 -17 -16 -16 -16 -15 -15 -15 -15 -14 -13

GFSNGP_850_dewp_132.txt.gz
Dewpoint
-5 -6 -5 -3 -3 -3 -1 -1 1 -4 -2 -6 -6 -3 -0 0 1 1 1 1 2 1 1 -0 -0 1 5 7 7 8 8 8 8 8 8 8 9 9 8 9 9 9 9 8
-1 -4 -4 -2 -3 -3 -3 -4 -3 -3 -2 -6 -4 -3 -0 0 1 1 1 1 1 1 0 0 -0 -1 -1 0 4 5 6 7 7 7 7 8 8 8 9 9 9 9 8 8
-4 -5 -5 -1 -7 -7 -5 -5 -5 -1 -7 -4 -1 -1 -1 -0 1 1 2 1 1 1 1 1 0 0 -0 -1 -2 -1 1 2 3 5 6 7 7 7 7 7 7 7 7 7
-1 -4 -4 -12 -5 -6 -5 -6 -5 -5 -5 -4 -3 -2 -0 0 1 1 1 1 0 1 1 1 0 0 -0 -0 -1 -1 -2 -2 -2 -2 -0 2 4 5 6 6 6 6 6 6
-2 -7 -11 -11 -13 -5 -2 -10 -6 -5 -6 -4 -2 0 -1 -0 0 1 1 -0 -0 0 1 1 0 0 -0 -0 -1 -1 -1 -1 -1 -1 -2 -2 -2 -1 -0 0 1 3 4 4
-3 -5 -10 -19 -5 -3 -3 -9 -8 -6 -6 -4 -1 -1 -5 -6 -3 -1 0 0 -1 -0 0 1 1 0 -0 -0 -1 -1 -1 -1 -1 -1 -1 -1 -1 -2 -2 -2 -2 -2 -2 -2
-5 -4 -11 -15 -3 -3 -11 -16 -12 -6 -6 -3 -1 -5 -5 -5 -5 -3 -0 -1 -2 -2 -0 1 1 1 0 -1 -1 -2 -1 -0 -0 -1 -1 -1 -1 -1 -1 -1 -1 -1 -1 -1
-6 -4 -5 -9 -2 -5 -13 -18 -11 -8 -6 -4 -4 -4 -5 -5 -4 -4 -3 -3 -4 -4 -3 -1 1 1 0 -0 -1 -1 -1 -1 -1 -2 -2 -2 -1 -0 -0 -0 -0 -1 -1 -1
-9 -8 -12 -5 -7 -7 -13 -12 -13 -9 -12 -10 -8 -7 -7 -5 -4 -4 -5 -4 -4 -4 -4 -4 -2 1 0 -0 -1 -1 -2 -2 -2 -2 -2 -2 -3 -3 -3 -2 -2 -2 -2 -2
-9 -11 -10 -11 -12 -9 -10 -10 -10 -11 -10 -10 -9 -9 -7 -6 -4 -4 -4 -5 -4 -4 -4 -4 -4 -3 0 -0 -1 -1 -2 -2 -2 -2 -2 -3 -3 -3 -3 -3 -3 -3 -3 -3
-9 -10 -10 -10 -12 -13 -13 -13 -12 -12 -10 -8 -7 -7 -7 -6 -6 -5 -5 -4 -3 -3 -4 -5 -4 -4 -2 0 -0 -1 -2 -2 -2 -2 -2 -2 -2 -2 -2 -2 -3 -3 -4 -4
-8 -11 -11 -11 -11 -12 -12 -12 -12 -13 -12 -11 -9 -7 -5 -5 -5 -4 -4 -4 -3 -3 -4 -6 -5 -4 -3 -1 0 -0 -1 -1 -1 -1 -1 -2 -2 -2 -3 -3 -4 -5 -6 -8
-10 -10 -10 -10 -11 -11 -11 -11 -11 -11 -12 -13 -12 -12 -9 -7 -4 -4 -3 -3 -4 -6 -7 -6 -6 -5 -3 -2 0 0 0 -0 -1 -1 -1 -1 -2 -3 -4 -6 -10 -11 -11 -11
-9 -9 -9 -10 -10 -10 -10 -10 -11 -12 -12 -12 -11 -11 -10 -10 -6 -3 -3 -5 -6 -7 -5 -5 -6 -4 -2 -1 -1 -2 -1 -1 -1 -1 -1 -2 -3 -4 -7 -11 -11 -10 -9 -9
-8 -9 -9 -9 -9 -9 -9 -9 -9 -10 -10 -11 -11 -11 -10 -10 -8 -4 -3 -4 -7 -6 -5 -3 -3 -2 -1 -0 -1 -2 -2 -2 -1 -1 -1 -3 -5 -9 -11 -10 -9 -9 -8 -9
-7 -8 -8 -8 -9 -9 -9 -8 -9 -9 -9 -9 -10 -11 -10 -10 -8 -4 -3 -5 -7 -6 -5 -4 -3 -3 -1 -1 -1 -1 -1 -1 -1 -2 -4 -7 -10 -11 -9 -8 -8 -8 -8 -8
-7 -7 -7 -7 -8 -8 -8 -9 -9 -9 -9 -10 -10 -10 -10 -9 -7 -3 -3 -5 -7 -6 -4 -4 -3 -3 -2 -1 -1 -1 -1 -2 -7 -11 -12 -10 -7 -6 -7 -7 -8 -9 -10 -10
-6 -7 -7 -7 -7 -7 -8 -8 -8 -9 -9 -9 -9 -9 -9 -9 -8 -5 -3 -5 -6 -4 -4 -4 -3 -3 -2 -2 -3 -3 -6 -9 -11 -6 -5 -5 -7 -8 -10 -12 -13 -14 -15 -16
-8 -9 -8 -8 -8 -8 -8 -8 -8 -8 -9 -8 -8 -9 -9 -9 -7 -4 -3 -5 -6 -4 -4 -4 -3 -3 -3 -4 -6 -9 -11 -6 -5 -7 -10 -13 -15 -16 -15 -14 -14 -14 -14 -15
-9 -9 -9 -9 -8 -8 -8 -8 -8 -8 -8 -8 -8 -7 -7 -7 -6 -4 -3 -5 -6 -5 -3 -3 -2 -3 -6 -9 -9 -6 -5 -8 -11 -16 -17 -16 -15 -14 -14 -15 -16 -16 -15 -16
-9 -9 -9 -8 -8 -8 -8 -8 -9 -9 -9 -8 -8 -7 -7 -6 -6 -3 -3 -4 -4 -3 -2 -3 -4 -8 -8 -7 -6 -8 -10 -16 -17 -15 -15 -14 -14 -16 -17 -17 -17 -16 -16 -16
-9 -8 -8 -8 -8 -8 -8 -8 -9 -9 -9 -9 -8 -7 -6 -5 -4 -3 -3 -4 -4 -3 -3 -3 -8 -8 -6 -7 -9 -14 -18 -15 -15 -14 -14 -16 -18 -18 -18 -17 -16 -14 -13 -13
-7 -7 -7 -7 -7 -8 -8 -8 -8 -8 -8 -8 -8 -7 -6 -5 -4 -3 -3 -3 -3 -3 -3 -8 -9 -5 -7 -11 -17 -16 -15 -15 -14 -15 -18 -19 -18 -18 -18 -18 -17 -17 -17 -16
-8 -8 -8 -8 -8 -8 -8 -7 -8 -8 -7 -7 -7 -7 -5 -4 -3 -3 -3 -3 -3 -3 -8 -8 -5 -8 -12 -17 -16 -15 -14 -14 -18 -19 -19 -18 -18 -18 -18 -17 -17 -16 -16 -16
-8 -8 -8 -8 -8 -7 -7 -7 -7 -7 -7 -6 -6 -5 -4 -3 -3 -3 -2 -3 -3 -8 -7 -5 -8 -13 -16 -15 -15 -14 -16 -19 -19 -19 -18 -18 -17 -17 -16 -16 -16 -15 -15 -15
-10 -10 -10 -10 -9 -9 -8 -7 -7 -6 -6 -6 -5 -4 -4 -3 -2 -3 -3 -4 -8 -7 -5 -9 -14 -16 -15 -14 -14 -18 -19 -19 -18 -18 -17 -17 -16 -16 -16 -15 -15 -14 -14 -14
-8 -9 -9 -9 -10 -9 -8 -7 -6 -6 -5 -5 -5 -4 -2 -2 -2 -3 -4 -8 -6 -6 -10 -15 -16 -15 -14 -16 -19 -19 -18 -18 -18 -17 -16 -16 -16 -15 -15 -14 -14 -13 -13 -13

GFSNGP_850_dewp_135.txt.gz
Dewpoint
-5 -7 -7 -5 -4 -5 -0 -1 1 -5 -4 -7 -9 -8 -4 -2 -1 0 1 1 1 1 1 1 0 0 1 5 7 8 7 7 7 8 9 9 9 9 10 10 10 10 10 10
-0 -6 -5 -5 -6 -5 -4 -3 -3 -4 -5 -9 -8 -5 -3 -2 -0 0 1 1 1 1 1 1 0 -0 -0 -0 1 4 6 7 7 8 8 8 9 9 9 9 9 9 9 8
-1 -7 -4 1 -5 -6 -6 -6 -5 -3 -8 -7 -6 -4 -3 -2 -1 -0 1 1 1 1 0 -0 -0 -0 -0 -0 -1 -1 -1 2 4 6 7 7 7 8 8 8 8 8 8 8
0 -0 2 -7 -6 -9 -9 -8 -8 -7 -8 -8 -7 -6 -4 -2 -2 -1 0 1 1 0 0 -0 -0 -1 -1 -1 -0 -0 -1 -1 -1 -1 1 3 5 6 6 6 6 6 6 6
-1 -5 -8 -13 -14 -5 -5 -8 -10 -8 -10 -10 -8 -4 -3 -2 -1 -1 -0 1 1 0 -0 0 -0 -0 -1 -1 -1 -1 -1 -1 -1 -1 -2 -2 -2 -2 -1 -1 -0 1 3 3
-2 -2 -6 -16 -12 -6 -6 -8 -10 -10 -10 -10 -5 -2 -8 -6 -3 -0 0 1 1 -0 -0 0 0 0 -0 -1 -1 -1 -1 -1 -1 -1 -1 -1 -1 -1 -1 -1 -2 -1 -1 -1
-2 -3 -8 -13 -6 -5 -8 -11 -10 -10 -10 -8 -4 -7 -4 -8 -5 -1 0 1 -0 -2 -3 0 0 1 0 -1 -1 -2 -2 -2 -2 -2 -2 -2 -2 -1 -1 -1 -1 -1 -1 -1
-5 -3 -2 -6 -3 -8 -11 -15 -14 -10 -9 -8 -6 -6 -4 -5 -4 -6 -3 -1 -2 -3 -4 -5 -2 0 0 -0 -1 -1 -2 -2 -2 -3 -3 -3 -3 -3 -3 -3 -2 -2 -2 -2
-7 -6 -11 -5 -9 -7 -9 -12 -11 -10 -11 -9 -6 -5 -5 -3 -3 -4 -4 -3 -4 -4 -3 -5 -5 -3 0 0 -0 -1 -1 -2 -2 -2 -2 -3 -3 -3 -3 -4 -4 -4 -4 -4
-10 -11 -11 -10 -9 -9 -7 -6 -7 -8 -9 -9 -10 -8 -6 -4 -3 -2 -2 -3 -3 -3 -2 -2 -5 -5 -3 0 -0 -1 -1 -2 -2 -2 -2 -3 -3 -3 -3 -3 -3 -3 -4 -4
-9 -11 -11 -11 -11 -11 -11 -10 -9 -10 -9 -6 -7 -10 -9 -7 -5 -4 -4 -3 -4 -4 -4 -3 -2 -3 -5 -3 -0 -0 -1 -2 -2 -2 -2 -2 -3 -3 -2 -2 -3 -4 -4 -6
-8 -10 -11 -11 -11 -11 -10 -10 -11 -11 -11 -11 -10 -9 -9 -8 -6 -6 -5 -4 -4 -4 -4 -4 -3 -2 -4 -4 -2 -0 -0 -1 -1 -1 -1 -1 -2 -2 -3 -4 -4 -5 -8 -10
-9 -10 -10 -11 -10 -10 -9 -10 -10 -10 -10 -9 -11 -11 -11 -10 -8 -5 -4 -4 -4 -4 -4 -4 -4 -5 -3 -4 -3 -1 0 -0 -0 -0 -1 -1 -1 -2 -3 -4 -7 -11 -11 -10
-9 -9 -9 -9 -9 -9 -9 -9 -9 -10 -10 -11 -12 -11 -12 -12 -11 -9 -8 -7 -4 -4 -4 -5 -7 -6 -5 -5 -3 -1 -0 -1 -1 -1 -1 -1 -1 -2 -4 -7 -11 -10 -9 -8
-6 -8 -8 -8 -8 -9 -9 -9 -9 -9 -9 -9 -9 -10 -11 -11 -11 -11 -10 -8 -5 -3 -4 -7 -6 -5 -4 -4 -3 -1 -1 -2 -2 -2 -2 -1 -1 -3 -6 -10 -10 -8 -8 -9
-5 -6 -7 -7 -7 -8 -8 -8 -8 -8 -8 -9 -9 -8 -9 -10 -10 -10 -10 -7 -4 -3 -5 -8 -7 -6 -5 -3 -2 -1 -1 -2 -2 -1 -1 -2 -4 -8 -10 -8 -7 -8 -10 -11
-5 -5 -5 -6 -6 -7 -7 -7 -7 -7 -8 -8 -8 -9 -8 -9 -10 -9 -8 -7 -4 -3 -5 -8 -6 -4 -4 -4 -2 -1 -1 -2 -2 -1 -4 -10 -11 -9 -6 -7 -9 -12 -16 -16
-4 -5 -5 -5 -6 -6 -7 -7 -7 -8 -8 -8 -8 -8 -8 -9 -9 -9 -9 -6 -3 -3 -5 -6 -5 -5 -4 -3 -2 -2 -1 -1 -2 -6 -10 -7 -5 -6 -9 -13 -16 -15 -14 -14
-5 -5 -5 -5 -6 -6 -7 -7 -7 -8 -8 -8 -8 -9 -9 -9 -8 -8 -6 -5 -3 -3 -5 -6 -5 -4 -3 -3 -2 -2 -3 -5 -8 -10 -6 -6 -10 -15 -16 -15 -14 -14 -14 -16
-8 -7 -8 -8 -8 -9 -8 -8 -8 -8 -8 -8 -8 -8 -8 -8 -8 -7 -6 -6 -4 -3 -4 -5 -4 -4 -3 -2 -3 -4 -7 -10 -7 -6 -9 -15 -17 -16 -15 -14 -15 -18 -18 -17
-9 -9 -9 -9 -9 -8 -8 -8 -8 -8 -8 -8 -8 -8 -8 -7 -7 -6 -5 -4 -3 -3 -4 -5 -4 -3 -2 -3 -6 -9 -8 -6 -8 -12 -17 -16 -15 -14 -15 -18 -18 -18 -17 -16
-9 -8 -8 -8 -8 -8 -8 -8 -8 -8 -9 -9 -8 -8 -7 -7 -6 -5 -4 -4 -3 -3 -4 -4 -3 -3 -3 -7 -8 -6 -7 -9 -16 -16 -15 -15 -14 -18 -19 -19 -19 -18 -18 -17
-8 -8 -8 -7 -8 -8 -8 -9 -9 -9 -9 -8 -8 -7 -7 -6 -5 -4 -4 -3 -3 -3 -4 -3 -3 -3 -8 -7 -6 -8 -11 -16 -15 -15 -14 -16 -19 -19 -19 -19 -18 -17 -17 -17
-8 -7 -7 -7 -7 -8 -9 -9 -8 -8 -8 -8 -7 -7 -6 -5 -4 -3 -2 -3 -3 -3 -3 -3 -3 -8 -8 -6 -8 -14 -16 -15 -15 -15 -19 -19 -19 -19 -18 -17 -17 -17 -16 -16
-7 -7 -8 -8 -9 -9 -8 -9 -9 -8 -7 -7 -7 -7 -6 -5 -4 -3 -2 -2 -2 -3 -3 -3 -8 -7 -6 -9 -15 -15 -15 -14 -17 -19 -19 -19 -18 -17 -17 -16 -16 -15 -15 -14
-7 -8 -8 -8 -9 -9 -10 -9 -8 -7 -7 -6 -6 -6 -5 -4 -3 -3 -2 -2 -3 -3 -4 -8 -6 -6 -10 -15 -15 -15 -15 -19 -19 -19 -18 -17 -17 -16 -16 -15 -15 -14 -13 -13
-6 -8 -9 -9 -9 -10 -10 -9 -8 -7 -6 -6 -5 -5 -4 -3 -3 -2 -2 -2 -3 -4 -8 -6 -6 -11 -15 -15 -14 -16 -19 -19 -18 -18 -17 -16 -16 -15 -15 -14 -14 -13 -13 -14

GFSNGP_850_dewp_138.txt.gz
Dewpoint
-2 -4 -5 -5 -4 -3 -2 -2 -1 -2 -3 -5 -7 -9 -8 -3 -2 -1 0 1 1 0 -0 -1 -1 -1 -1 3 6 7 6 7 8 8 8 9 9 10 10 10 10 11 11 10
-4 -4 -5 -3 -5 -5 -4 -3 -3 -3 -2 -5 -7 -6 -6 -3 -2 -0 -0 1 1 1 0 -0 -1 -1 -1 -2 -1 3 6 6 7 7 8 8 8 9 9 9 9 9 9 9
0 -4 -3 -3 -4 -5 -5 -4 -4 -1 -4 -8 -7 -5 -4 -4 -2 -1 -0 0 1 1 0 -0 -1 -1 -1 -1 -1 -2 -1 2 5 7 7 7 8 8 8 8 8 8 8 9
0 -1 -0 -4 -8 -7 -6 -7 -6 -6 -7 -8 -7 -7 -7 -4 -3 -2 -1 -0 0 0 0 -0 -0 -0 -1 -1 -1 -1 -1 -2 -2 -1 2 4 5 5 5 6 6 6 6 6
1 -1 -4 -8 -8 -5 -7 -9 -8 -9 -8 -9 -10 -6 -6 -6 -4 -2 -1 -1 0 0 -1 -1 -0 -0 -0 -0 -1 -1 -1 -1 -1 -1 -2 -2 -2 -2 -1 -0 1 2 3 4
0 -0 -3 -10 -13 -7 -10 -10 -9 -8 -8 -9 -5 -3 -4 -6 -6 -3 -1 -1 0 -1 -2 -2 -1 -0 -0 -0 -1 -1 -1 -1 -1 -1 -1 -1 -1 -1 -1 -1 -1 -1 -2 -1
-1 -0 -2 -8 -7 -6 -9 -8 -10 -12 -11 -10 -5 -5 -5 -7 -6 -3 -2 -1 -1 -1 -2 -2 -3 -1 -0 -0 -1 -1 -1 -1 -1 -2 -2 -2 -1 -1 -1 -1 -1 -1 -1 -1
-2 -0 -1 -6 -4 -7 -10 -13 -13 -18 -15 -10 -10 -10 -6 -6 -6 -8 -6 -3 -4 -5 -5 -5 -6 -4 -0 -0 -0 -1 -1 -1 -2 -2 -3 -3 -3 -3 -3 -2 -3 -2 -2 -2
-4 -3 -8 -6 -11 -11 -10 -10 -12 -12 -13 -13 -12 -11 -10 -8 -7 -7 -7 -7 -6 -6 -6 -6 -7 -7 -5 -1 0 -1 -1 -1 -2 -2 -2 -3 -3 -3 -4 -4 -4 -4 -4 -4
-9 -11 -11 -11 -10 -11 -11 -6 -7 -8 -10 -9 -10 -11 -11 -10 -8 -7 -7 -6 -6 -5 -6 -6 -6 -6 -7 -4 -3 -0 -1 -1 -1 -2 -2 -3 -3 -3 -3 -2 -2 -3 -4 -5
-8 -10 -11 -11 -12 -11 -11 -11 -11 -11 -9 -9 -8 -8 -8 -9 -9 -9 -8 -8 -6 -6 -5 -6 -5 -6 -6 -6 -6 -3 -0 -1 -1 -2 -3 -3 -3 -3 -3 -3 -3 -4 -5 -7
-6 -9 -9 -9 -10 -10 -10 -11 -11 -10 -10 -10 -11 -10 -11 -10 -10 -9 -8 -7 -5 -5 -6 -7 -6 -4 -4 -5 -6 -5 -1 -1 -1 -1 -2 -2 -2 -2 -3 -3 -4 -5 -7 -10
-8 -9 -9 -8 -9 -9 -9 -10 -10 -10 -10 -10 -10 -10 -10 -10 -11 -10 -8 -6 -5 -6 -6 -5 -5 -5 -4 -5 -5 -5 -3 -1 -0 -0 -1 -1 -1 -2 -3 -3 -4 -6 -10 -10
-5 -6 -8 -8 -9 -9 -9 -9 -9 -9 -9 -10 -10 -10 -10 -10 -10 -8 -7 -10 -9 -6 -5 -4 -4 -5 -6 -6 -7 -6 -3 -1 -0 -1 -1 -1 -2 -1 -2 -3 -5 -9 -10 -9
-4 -3 -4 -6 -6 -7 -8 -8 -8 -8 -9 -9 -9 -9 -10 -10 -10 -11 -10 -10 -9 -6 -4 -4 -4 -4 -5 -7 -6 -6 -4 -2 -2 -1 -2 -3 -2 -2 -2 -4 -7 -10 -8 -8
-3 -4 -5 -5 -5 -5 -6 -6 -6 -7 -8 -8 -8 -8 -9 -9 -9 -9 -10 -10 -8 -8 -7 -4 -3 -4 -7 -6 -5 -4 -2 -1 -1 -2 -3 -2 -2 -2 -4 -7 -10 -7 -7 -11
-3 -3 -4 -4 -4 -4 -5 -6 -6 -7 -7 -7 -7 -8 -8 -8 -8 -8 -8 -9 -8 -9 -7 -5 -3 -4 -7 -7 -6 -4 -2 -1 -1 -1 -2 -1 -2 -6 -9 -9 -6 -8 -12 -14
-3 -3 -3 -4 -4 -4 -5 -5 -6 -6 -7 -7 -7 -7 -7 -7 -7 -8 -8 -8 -7 -7 -6 -4 -3 -5 -7 -6 -4 -3 -2 -2 -2 -2 -2 -2 -8 -9 -6 -6 -10 -16 -15 -14
-4 -4 -5 -4 -4 -4 -5 -5 -6 -6 -7 -7 -8 -8 -8 -8 -7 -7 -7 -7 -6 -6 -7 -4 -3 -5 -6 -5 -3 -3 -2 -2 -2 -2 -3 -8 -7 -5 -8 -14 -16 -15 -14 -17
-5 -5 -8 -7 -6 -6 -5 -6 -7 -8 -8 -8 -8 -8 -8 -8 -8 -7 -7 -7 -7 -7 -5 -4 -3 -5 -5 -4 -3 -3 -2 -2 -2 -5 -9 -6 -7 -13 -16 -16 -15 -15 -19 -19
-6 -6 -7 -8 -8 -8 -8 -8 -8 -8 -8 -8 -8 -8 -8 -8 -7 -7 -6 -6 -5 -4 -4 -3 -3 -4 -4 -4 -4 -3 -2 -4 -7 -9 -6 -8 -16 -16 -15 -14 -18 -20 -20 -19
-6 -7 -8 -8 -8 -8 -8 -8 -8 -8 -8 -8 -8 -8 -8 -8 -7 -6 -5 -5 -4 -3 -3 -2 -3 -4 -3 -3 -2 -3 -5 -8 -7 -6 -10 -17 -15 -15 -16 -20 -20 -19 -19 -18
1 -0 -6 -7 -8 -7 -7 -8 -8 -8 -8 -8 -8 -8 -8 -7 -6 -6 -5 -4 -3 -3 -2 -3 -3 -3 -3 -3 -3 -7 -8 -6 -7 -14 -16 -15 -14 -18 -20 -20 -19 -18 -18 -17
-4 -1 -3 -6 -6 -6 -7 -8 -8 -8 -8 -8 -7 -7 -6 -6 -5 -5 -4 -3 -3 -2 -2 -2 -2 -2 -3 -5 -8 -6 -6 -9 -15 -15 -15 -15 -20 -20 -19 -18 -18 -17 -16 -16
-7 -7 -5 -6 -6 -5 -6 -7 -8 -9 -10 -9 -8 -7 -6 -6 -5 -5 -4 -3 -2 -2 -2 -2 -2 -3 -5 -7 -6 -7 -12 -15 -15 -14 -18 -20 -19 -18 -18 -17 -16 -16 -15 -15
-5 -6 -4 -4 -5 -5 -7 -8 -9 -9 -8 -7 -7 -6 -6 -5 -4 -4 -3 -2 -2 -2 -2 -3 -3 -4 -7 -6 -8 -13 -15 -15 -15 -19 -19 -18 -18 -17 -16 -16 -15 -15 -15 -15
-4 -1 -1 -4 -6 -4 -7 -8 -5 -5 -7 -7 -6 -5 -5 -4 -4 -3 -3 -3 -3 -3 -3 -3 -5 -6 -6 -10 -15 -15 -15 -17 -19 -19 -18 -17 -17 -16 -15 -15 -14 -14 -14 -14

GFSNGP_850_dewp_141.txt.gz
Dewpoint
-2 -2 -2 -2 -3 -4 -2 -3 -3 -7 -2 -5 -6 -8 -8 -9 -5 -2 -2 -1 0 -0 -0 -0 -1 -1 -1 -1 3 6 6 6 7 8 8 8 8 9 9 10 10 11 11 11
-3 -4 -4 -4 -5 -5 -5 -4 -3 -4 -4 -7 -7 -7 -6 -5 -2 -2 -2 -1 0 0 -0 -1 -1 -1 -1 -1 -2 -0 4 6 7 7 8 8 8 8 9 9 9 9 9 10
-3 -3 -3 -6 -5 -4 -5 -5 -5 -3 -6 -6 -6 -6 -6 -6 -5 -3 -2 -1 0 0 -1 -1 -1 -1 -2 -2 -1 -2 -2 0 4 6 6 7 7 8 8 8 8 8 8 8
-1 -2 -4 -7 -7 -7 -6 -8 -5 -5 -5 -6 -7 -8 -8 -8 -6 -4 -3 -2 -1 -1 -1 -1 -1 -1 -1 -1 -2 -1 -1 -2 -2 -1 1 3 4 5 6 7 7 7 7 7
-0 -0 -4 -7 -6 -7 -7 -12 -8 -7 -7 -8 -8 -7 -7 -9 -7 -6 -5 -2 -1 -1 -1 -1 -1 -1 -1 -1 -1 -1 -1 -1 -1 -1 -1 -1 -1 -1 -0 2 3 4 4 5
-0 -0 -5 -10 -15 -9 -11 -13 -13 -8 -8 -9 -7 -7 -8 -11 -7 -10 -6 -3 -2 -1 -1 -2 -2 -0 -0 -1 -2 -2 -1 -2 -1 -1 -1 -1 -1 -0 -1 -1 -1 -1 -2 -1
-0 0 -3 -6 -10 -7 -15 -14 -11 -9 -10 -9 -6 -9 -13 -10 -8 -9 -10 -5 -2 -1 -2 -4 -4 -2 -1 -0 -1 -2 -2 -2 -2 -3 -2 -2 -1 -1 -0 -1 -2 -2 -2 -2
-1 0 -1 -7 -5 -14 -15 -15 -13 -13 -13 -12 -14 -14 -12 -10 -7 -7 -9 -5 -5 -5 -6 -6 -5 -5 -4 -2 -1 -1 -2 -2 -2 -3 -3 -4 -3 -3 -3 -2 -3 -3 -3 -3
-3 -3 -7 -7 -12 -15 -12 -11 -12 -14 -15 -13 -12 -13 -13 -12 -10 -9 -8 -9 -9 -9 -8 -8 -8 -7 -7 -6 -2 -0 -1 -2 -2 -3 -3 -3 -3 -4 -5 -5 -5 -5 -5 -5
-8 -9 -8 -8 -9 -10 -10 -10 -11 -11 -11 -9 -10 -10 -11 -11 -10 -9 -9 -7 -8 -7 -7 -7 -8 -8 -8 -6 -4 -2 -0 -1 -1 -2 -2 -3 -4 -5 -5 -5 -4 -5 -6 -6
-8 -10 -10 -10 -10 -10 -11 -10 -10 -11 -11 -10 -10 -10 -10 -9 -10 -10 -10 -9 -7 -6 -6 -7 -7 -7 -7 -6 -6 -4 -1 -1 -1 -1 -2 -3 -3 -3 -3 -3 -4 -4 -5 -7
-5 -6 -7 -6 -6 -7 -8 -9 -9 -9 -9 -10 -10 -10 -11 -11 -11 -11 -10 -9 -8 -7 -6 -6 -5 -6 -6 -5 -5 -5 -3 -1 -1 -1 -1 -2 -2 -2 -2 -3 -3 -4 -7 -10
-6 -6 -6 -6 -7 -7 -6 -7 -6 -7 -9 -9 -10 -10 -10 -10 -11 -10 -10 -9 -8 -8 -8 -6 -5 -4 -5 -5 -4 -4 -5 -3 -1 -1 -1 -1 -1 -1 -1 -2 -3 -5 -8 -10
-6 -6 -6 -6 -7 -7 -4 -6 -7 -8 -8 -8 -9 -9 -9 -9 -10 -10 -10 -10 -9 -8 -7 -6 -4 -4 -4 -4 -4 -4 -4 -4 -2 -1 -1 -0 -1 -1 -3 -2 -3 -5 -9 -10
-4 -4 -5 -5 -5 -5 -4 -3 -3 -4 -5 -6 -7 -8 -8 -9 -9 -9 -10 -10 -10 -8 -5 -5 -4 -4 -4 -4 -4 -4 -5 -4 -3 -1 -0 -1 -1 -2 -3 -2 -3 -6 -10 -8
-3 -3 -3 -3 -3 -3 -3 -3 -4 -4 -5 -5 -7 -7 -7 -8 -8 -8 -9 -9 -9 -9 -8 -7 -7 -7 -4 -3 -4 -5 -5 -4 -3 -1 -0 -1 -2 -2 -2 -2 -4 -9 -9 -7
-3 -2 -2 -2 -2 -2 -3 -3 -4 -4 -4 -5 -5 -6 -7 -7 -7 -8 -8 -8 -8 -8 -8 -8 -8 -7 -4 -3 -3 -6 -5 -4 -2 -1 -1 -1 -2 -2 -2 -5 -9 -8 -7 -11
-3 -3 -2 -2 -2 -2 -3 -3 -3 -4 -4 -5 -6 -7 -6 -7 -7 -7 -8 -8 -7 -7 -8 -8 -8 -7 -4 -3 -4 -6 -5 -4 -3 -2 -2 -2 -2 -2 -6 -9 -7 -7 -13 -15
-3 -3 -3 -3 -3 -3 -3 -4 -4 -4 -4 -5 -6 -7 -7 -7 -7 -7 -7 -7 -7 -7 -8 -7 -6 -5 -3 -3 -5 -5 -4 -2 -2 -2 -2 -3 -2 -5 -7 -5 -8 -16 -15 -15
-5 -5 -6 -6 -6 -6 -6 -6 -5 -5 -5 -6 -7 -7 -8 -8 -8 -8 -8 -7 -7 -7 -7 -5 -4 -4 -2 -3 -4 -3 -2 -2 -3 -3 -3 -3 -6 -7 -6 -12 -16 -15 -15 -20
-4 -2 -1 1 -6 -7 -7 -7 -6 -7 -8 -7 -7 -7 -7 -7 -7 -7 -7 -7 -7 -6 -5 -4 -4 -3 -2 -3 -3 -3 -2 -3 -2 -3 -3 -6 -7 -7 -15 -15 -15 -17 -20 -20
-6 -1 1 0 1 -5 -7 -7 -7 -7 -7 -7 -8 -8 -8 -8 -7 -7 -7 -6 -6 -5 -4 -3 -3 -2 -2 -2 -2 -2 -3 -3 -3 -4 -8 -6 -9 -15 -15 -15 -19 -20 -20 -19
-4 -6 -1 0 1 -1 -3 -5 -6 -7 -7 -8 -8 -8 -8 -7 -7 -7 -6 -6 -5 -4 -4 -3 -2 -1 -1 -2 -2 -2 -3 -3 -6 -8 -6 -12 -15 -15 -16 -20 -20 -19 -18 -18
-5 -5 -5 -3 -1 -3 -3 -4 -6 -7 -7 -7 -7 -7 -7 -7 -6 -6 -6 -5 -4 -3 -3 -2 -2 -2 -2 -2 -2 -3 -4 -8 -7 -7 -14 -15 -15 -18 -20 -19 -18 -18 -17 -17
-6 -5 -6 -4 -3 -5 -2 -1 -4 -6 -7 -6 -6 -7 -7 -7 -6 -5 -5 -4 -3 -2 -2 -2 -2 -2 -2 -2 -3 -7 -7 -6 -10 -14 -14 -16 -19 -19 -18 -18 -17 -17 -16 -16
-5 -5 -5 -6 -1 0 -2 -0 -2 -6 -7 -6 -7 -7 -7 -6 -5 -4 -4 -3 -2 -2 -3 -3 -3 -2 -3 -5 -6 -6 -7 -12 -15 -15 -17 -20 -19 -18 -17 -17 -16 -16 -16 -15
-5 -4 -4 -5 -5 -1 -1 -1 -1 -5 -3 -2 -4 -7 -6 -5 -5 -4 -3 -3 -3 -3 -3 -3 -3 -4 -5 -6 -6 -10 -14 -15 -15 -19 -19 -18 -17 -17 -16 -16 -15 -15 -14 -14

GFSNGP_850_dewp_144.txt.gz
Dewpoint
-3 -4 -4 -3 -4 -4 -2 -4 -4 -9 -2 -6 -5 -5 -8 -9 -8 -8 -9 -2 -1 -1 -0 -1 -1 -1 -1 -1 -2 0 5 7 7 8 8 8 8 8 8 8 8 9 9 8
-3 -4 -4 -3 -4 -4 -4 -4 -4 -4 -5 -8 -8 -8 -8 -7 -6 -5 -6 -2 -2 -1 -1 -1 -1 -1 -2 -1 -1 -1 -1 4 6 7 7 7 8 8 8 7 8 8 8 9
-3 -5 -2 -3 -3 -4 -5 -5 -5 -3 -6 -9 -8 -7 -7 -7 -8 -7 -6 -5 -3 -2 -2 -2 -2 -1 -2 -2 -2 -1 -1 -1 1 4 6 6 7 7 8 8 8 8 8 8
-1 -2 -3 -6 -7 -6 -5 -6 -6 -6 -7 -7 -7 -8 -8 -8 -8 -8 -8 -6 -3 -2 -2 -3 -3 -2 -2 -2 -2 -2 -2 -1 -1 -1 -0 1 4 5 7 7 7 6 7 6
-1 -0 -4 -8 -5 -5 -6 -11 -8 -7 -8 -9 -8 -8 -9 -13 -11 -11 -10 -7 -5 -3 -2 -2 -3 -3 -2 -2 -2 -2 -2 -2 -2 -1 -1 -1 -2 -1 1 3 5 6 6 6
-1 1 -4 -11 -15 -9 -10 -13 -15 -8 -9 -9 -8 -8 -9 -14 -14 -9 -9 -10 -5 -4 -2 -1 -3 -3 -3 -2 -2 -2 -2 -2 -2 -2 -2 -2 -1 -1 -1 -1 -1 -1 -2 -1
-0 1 -2 -7 -11 -8 -15 -13 -13 -10 -11 -9 -7 -10 -14 -13 -13 -11 -11 -13 -9 -4 -3 -3 -2 -3 -4 -3 -2 -1 -2 -2 -3 -3 -3 -4 -3 -3 -3 -3 -3 -3 -3 -3
-1 0 -1 -8 -6 -14 -14 -14 -14 -13 -14 -11 -12 -13 -13 -13 -12 -11 -9 -9 -10 -6 -5 -3 -2 -4 -5 -5 -3 -1 -1 -2 -2 -3 -3 -3 -4 -4 -4 -5 -5 -5 -5 -5
-3 -3 -8 -7 -10 -11 -12 -11 -12 -11 -11 -11 -12 -13 -13 -13 -13 -13 -11 -8 -7 -7 -7 -5 -3 -5 -5 -8 -5 -2 -1 -1 -2 -2 -3 -3 -3 -4 -4 -5 -5 -6 -6 -6
-6 -7 -7 -9 -9 -9 -10 -8 -10 -10 -10 -10 -9 -10 -9 -9 -9 -10 -10 -10 -8 -6 -5 -5 -6 -7 -8 -6 -6 -4 -2 -1 -1 -2 -2 -2 -3 -3 -4 -4 -4 -4 -5 -6
-7 -8 -9 -9 -10 -9 -8 -9 -9 -7 -2 -6 -9 -9 -9 -9 -10 -11 -11 -10 -10 -8 -6 -7 -6 -6 -6 -6 -5 -5 -4 -2 -1 -1 -1 -2 -3 -3 -3 -3 -3 -4 -4 -6
-2 -4 -5 -5 -5 -4 -4 -5 -5 -6 -5 -5 -3 -6 -7 -8 -9 -10 -10 -10 -10 -10 -8 -8 -6 -5 -5 -5 -5 -5 -4 -3 -2 -1 -1 -2 -2 -3 -3 -3 -3 -4 -4 -7
-4 -4 -4 -5 -5 -5 -5 -5 -6 -6 -6 -5 -4 -5 -7 -8 -8 -9 -9 -9 -10 -10 -10 -9 -8 -6 -4 -4 -4 -5 -5 -4 -3 -1 -1 -1 -1 -2 -2 -2 -2 -3 -5 -8
-3 -3 -4 -4 -4 -5 -5 -6 -5 -5 -5 -4 -4 -3 -4 -5 -5 -8 -9 -9 -9 -10 -10 -9 -8 -7 -5 -3 -3 -4 -4 -4 -3 -2 -1 -1 -1 -1 -1 -2 -2 -3 -6 -9
-3 -3 -3 -3 -3 -3 -3 -3 -3 -3 -3 -3 -3 -2 -3 -4 -5 -6 -8 -8 -8 -9 -10 -10 -9 -8 -5 -3 -3 -3 -3 -3 -3 -3 -1 -1 -0 -0 -1 -2 -2 -2 -6 -9
-4 -3 -3 -3 -3 -3 -3 -2 -2 -2 -2 -3 -3 -4 -4 -4 -5 -5 -6 -7 -8 -9 -9 -9 -9 -8 -5 -4 -3 -3 -3 -3 -3 -3 -1 -1 -1 -1 -1 -2 -2 -2 -6 -9
-3 -3 -3 -3 -3 -3 -2 -2 -2 -2 -2 -3 -3 -3 -4 -4 -5 -5 -6 -7 -7 -8 -8 -8 -9 -8 -6 -5 -3 -3 -3 -3 -3 -3 -1 -1 -1 -1 -2 -3 -2 -4 -8 -7
-4 -4 -3 -3 -3 -3 -3 -3 -2 -2 -2 -3 -4 -4 -4 -5 -6 -7 -6 -7 -7 -7 -8 -8 -8 -6 -5 -4 -3 -3 -3 -3 -3 -2 -1 -1 -2 -2 -3 -3 -4 -8 -7 -8
-1 0 -3 -2 -5 -6 -6 -6 -6 -5 -5 -5 -4 -4 -5 -5 -5 -7 -7 -7 -7 -7 -7 -7 -6 -6 -4 -4 -3 -2 -2 -4 -3 -2 -2 -2 -2 -3 -3 -4 -7 -6 -8 -15
-2 0 -1 -2 -1 -3 -4 -6 -7 -6 -5 -5 -5 -6 -6 -6 -6 -6 -7 -7 -7 -7 -6 -6 -6 -5 -4 -3 -3 -2 -3 -3 -2 -2 -2 -3 -3 -3 -3 -7 -5 -10 -16 -15
-4 -5 -2 -2 -2 0 -1 -1 -4 -6 -6 -7 -6 -7 -7 -7 -7 -7 -7 -7 -7 -6 -6 -6 -5 -4 -3 -3 -2 -3 -3 -2 -2 -2 -3 -3 -3 -3 -7 -6 -13 -16 -15 -19
-9 -7 -10 -5 -4 0 1 -0 -1 -0 -3 -5 -6 -7 -7 -7 -7 -7 -7 -6 -6 -6 -6 -5 -4 -4 -3 -3 -2 -3 -1 -2 -2 -3 -3 -3 -4 -7 -7 -14 -15 -16 -20 -20
-12 -12 -11 -6 -5 -3 -1 0 -2 -4 -3 -3 -4 -5 -6 -6 -6 -5 -6 -6 -6 -5 -3 -3 -3 -2 -2 -1 -1 -1 -2 -2 -3 -3 -3 -5 -6 -9 -14 -15 -18 -20 -19 -19
-14 -14 -12 -7 -5 -4 -2 -0 1 -1 -5 -6 -6 -6 -6 -6 -6 -6 -6 -5 -5 -4 -4 -3 -2 -1 -1 -1 -1 -2 -2 -3 -3 -4 -7 -6 -12 -15 -15 -19 -20 -18 -18 -18
-11 -12 -10 -6 -5 -5 -4 -1 -1 -1 -1 -6 -6 -6 -6 -6 -5 -5 -5 -5 -4 -3 -2 -2 -2 -2 -2 -2 -2 -2 -3 -4 -6 -6 -8 -14 -14 -16 -20 -19 -18 -17 -17 -17
-10 -9 -8 -8 -5 -4 -5 -4 -1 -1 -1 -5 -6 -5 -5 -6 -5 -4 -4 -4 -3 -2 -2 -2 -2 -2 -2 -2 -3 -4 -6 -6 -6 -11 -14 -15 -18 -20 -19 -18 -17 -16 -16 -16
-9 -9 -8 -8 -10 -5 -4 -4 -4 -0 0 -3 -4 -5 -5 -5 -5 -4 -3 -3 -3 -3 -3 -3 -3 -3 -3 -4 -5 -6 -6 -9 -14 -15 -16 -19 -20 -18 -17 -16 -16 -16 -15 -14